Location: Unspecified
(0.0000°N, 0.0000°E)
Time: 16:58:12
(UTC+00:00)

HTV-X1 - Pass Details

Date: 08 May 2026
Orbit: 372 x 382 km, 51.6° (Epoch: 21 May)

Event Time Altitude Azimuth Distance (km) Brightness Sun altitude
Rises 18:51:05 0° 241° (WSW) 2,221 ? -13.0°
Reaches altitude 10° 18:53:37 10° 263° (W) 1,367 ? -13.6°
Maximum altitude 18:55:40 17° 306° (NW) 1,044 ? -14.1°
Drops below altitude 10° 18:57:43 10° 348° (NNW) 1,360 ? -14.6°
Sets 19:00:14 0° 10° (N) 2,204 ? -15.2°
